Hourly Weather Abbadia San Salvatore

Today, 28 February, Sunday

Time Temperature Precipitation Wind Pressure Humidity
00:00 +1°C° 0 mm 3 mps 677 mmHg 84%
01:00 +2°C° 0 mm 2 mps 677 mmHg 86%
02:00 +2°C° 0 mm 2 mps 677 mmHg 85%
03:00 0°C° 0 mm 3 mps 677 mmHg 84%
04:00 0°C° 0 mm 3 mps 677 mmHg 83%
05:00 0°C° 0 mm 3 mps 677 mmHg 83%
06:00 0°C° 0 mm 3 mps 677 mmHg 84%
07:00 -1°C° 0 mm 2 mps 677 mmHg 86%
08:00 +1°C° 0 mm 3 mps 678 mmHg 79%
09:00 +2°C° 0 mm 3 mps 678 mmHg 72%
10:00 +3°C° 0 mm 4 mps 679 mmHg 66%
11:00 +4°C° 0 mm 4 mps 679 mmHg 63%
12:00 +5°C° 0 mm 4 mps 680 mmHg 60%
13:00 +7°C° 0 mm 4 mps 680 mmHg 56%
14:00 +6°C° 0 mm 4 mps 680 mmHg 58%
15:00 +6°C° 0 mm 4 mps 680 mmHg 60%
16:00 +7°C° 0 mm 3 mps 679 mmHg 62%
17:00 +4°C° 0 mm 3 mps 679 mmHg 67%
18:00 +2°C° 0 mm 3 mps 678 mmHg 73%
19:00 +1°C° 0 mm 2 mps 678 mmHg 78%
20:00 -1°C° 0 mm 2 mps 678 mmHg 79%
21:00 -1°C° 0 mm 2 mps 678 mmHg 80%
22:00 -2°C° 0 mm 2 mps 678 mmHg 81%
23:00 -2°C° 0 mm 2 mps 678 mmHg 82%

Tomorrow, 1 March, Monday

Time Temperature Precipitation Wind Pressure Humidity
00:00 -3°C° 0 mm 2 mps 678 mmHg 82%
01:00 -3°C° 0 mm 2 mps 678 mmHg 82%
02:00 -1°C° 0 mm 1 mps 677 mmHg 82%
03:00 -1°C° 0 mm 1 mps 677 mmHg 81%
04:00 -2°C° 0 mm 1 mps 677 mmHg 81%
05:00 -2°C° 0 mm 1 mps 677 mmHg 80%
06:00 -2°C° 0 mm 1 mps 677 mmHg 79%
07:00 -2°C° 0 mm 1 mps 677 mmHg 78%
08:00 0°C° 0 mm 1 mps 678 mmHg 71%
09:00 +3°C° 0 mm 1 mps 679 mmHg 65%
10:00 +5°C° 0 mm 1 mps 679 mmHg 58%
11:00 +7°C° 0 mm 1 mps 680 mmHg 55%
12:00 +8°C° 0 mm 1 mps 680 mmHg 52%
13:00 +10°C° 0 mm 1 mps 681 mmHg 48%
14:00 +10°C° 0 mm 1 mps 681 mmHg 49%
15:00 +9°C° 0 mm 1 mps 680 mmHg 49%
16:00 +8°C° 0 mm 2 mps 680 mmHg 50%
17:00 +7°C° 0 mm 1 mps 680 mmHg 56%
18:00 +5°C° 0 mm 1 mps 679 mmHg 63%
19:00 +3°C° 0 mm 1 mps 679 mmHg 69%
20:00 +2°C° 0 mm 1 mps 679 mmHg 69%
21:00 +2°C° 0 mm 1 mps 678 mmHg 69%
22:00 +1°C° 0 mm 1 mps 678 mmHg 69%
23:00 +1°C° 0 mm 1 mps 678 mmHg 68%

Day after tomorrow, 2 March, Tuesday

Time Temperature Precipitation Wind Pressure Humidity
00:00 0°C° 0 mm 1 mps 679 mmHg 68%
01:00 0°C° 0 mm 1 mps 679 mmHg 67%
02:00 0°C° 0 mm 1 mps 678 mmHg 66%
03:00 -1°C° 0 mm 1 mps 678 mmHg 65%
04:00 -1°C° 0 mm 1 mps 678 mmHg 64%
05:00 -1°C° 0 mm 1 mps 678 mmHg 65%
06:00 -1°C° 0 mm 1 mps 678 mmHg 66%
07:00 -1°C° 0 mm 1 mps 678 mmHg 67%
08:00 +1°C° 0 mm 1 mps 679 mmHg 64%
09:00 +4°C° 0 mm 1 mps 680 mmHg 60%
10:00 +6°C° 0 mm 1 mps 681 mmHg 57%
11:00 +7°C° 0 mm 1 mps 682 mmHg 54%
12:00 +9°C° 0 mm 1 mps 682 mmHg 51%
13:00 +10°C° 0 mm 1 mps 682 mmHg 47%
14:00 +10°C° 0 mm 1 mps 682 mmHg 49%
15:00 +10°C° 0 mm 1 mps 682 mmHg 50%
16:00 +10°C° 0 mm 1 mps 682 mmHg 51%
17:00 +8°C° 0 mm 1 mps 681 mmHg 60%
18:00 +6°C° 0 mm 1 mps 681 mmHg 68%
19:00 +4°C° 0 mm 1 mps 681 mmHg 76%
20:00 +3°C° 0 mm 1 mps 681 mmHg 78%
21:00 +3°C° 0 mm 1 mps 681 mmHg 80%
22:00 +2°C° 0 mm 1 mps 681 mmHg 82%
23:00 +2°C° 0 mm 1 mps 681 mmHg 83%

3 March, Wednesday

Time Temperature Precipitation Wind Pressure Humidity
00:00 +2°C° 0 mm 1 mps 681 mmHg 84%
01:00 +1°C° 0 mm 1 mps 680 mmHg 85%
02:00 +1°C° 0 mm 1 mps 680 mmHg 85%
03:00 +1°C° 0 mm 1 mps 680 mmHg 86%
04:00 +1°C° 0 mm 1 mps 680 mmHg 86%
05:00 +1°C° 0 mm 1 mps 680 mmHg 86%
06:00 0°C° 0 mm 1 mps 680 mmHg 85%
07:00 0°C° 0 mm 1 mps 680 mmHg 85%
08:00 +3°C° 0 mm 1 mps 680 mmHg 77%
09:00 +4°C° 0 mm 0 mps 681 mmHg 70%
10:00 +7°C° 0 mm 0 mps 682 mmHg 62%
11:00 +9°C° 0 mm 1 mps 682 mmHg 58%
12:00 +10°C° 0 mm 1 mps 682 mmHg 54%
13:00 +11°C° 0 mm 1 mps 682 mmHg 50%
14:00 +11°C° 0 mm 1 mps 682 mmHg 52%
15:00 +11°C° 0 mm 1 mps 681 mmHg 54%
16:00 +10°C° 0 mm 1 mps 681 mmHg 56%
17:00 +8°C° 0 mm 1 mps 680 mmHg 65%
18:00 +6°C° 0 mm 1 mps 679 mmHg 74%
19:00 +4°C° 0 mm 1 mps 679 mmHg 82%
20:00 +3°C° 0 mm 1 mps 678 mmHg 83%
21:00 +2°C° 0 mm 0 mps 678 mmHg 83%
22:00 +2°C° 0 mm 0 mps 678 mmHg 83%
23:00 +1°C° 0 mm 0 mps 678 mmHg 81%

4 March, Thursday

Time Temperature Precipitation Wind Pressure Humidity
00:00 +1°C° 0 mm 0 mps 677 mmHg 79%
01:00 0°C° 0 mm 0 mps 677 mmHg 76%
02:00 0°C° 0 mm 0 mps 677 mmHg 75%
03:00 0°C° 0 mm 0 mps 676 mmHg 74%
04:00 -1°C° 0 mm 0 mps 676 mmHg 73%
05:00 -1°C° 0 mm 0 mps 676 mmHg 73%
06:00 -1°C° 0 mm 0 mps 675 mmHg 73%
07:00 0°C° 0 mm 1 mps 675 mmHg 73%
08:00 +2°C° 0 mm 1 mps 676 mmHg 69%
09:00 +5°C° 0 mm 1 mps 676 mmHg 65%
10:00 +7°C° 0 mm 1 mps 677 mmHg 61%
11:00 +8°C° 0 mm 1 mps 677 mmHg 58%
12:00 +8°C° 0 mm 2 mps 677 mmHg 56%
13:00 +9°C° 0 mm 2 mps 676 mmHg 54%
14:00 +8°C° 0 mm 3 mps 676 mmHg 57%
15:00 +8°C° 0 mm 3 mps 675 mmHg 61%
16:00 +7°C° 0 mm 3 mps 675 mmHg 64%
17:00 +5°C° 0 mm 2 mps 674 mmHg 73%
18:00 +4°C° 0 mm 2 mps 673 mmHg 82%
19:00 +3°C° 0 mm 1 mps 673 mmHg 90%
20:00 +2°C° 0 mm 1 mps 672 mmHg 91%
21:00 +2°C° 0 mm 1 mps 672 mmHg 91%
22:00 +1°C° 0 mm 1 mps 672 mmHg 92%
23:00 +1°C° 0 mm 1 mps 672 mmHg 92%

5 March, Friday

Time Temperature Precipitation Wind Pressure Humidity
00:00 +1°C° 0 mm 1 mps 671 mmHg 92%
01:00 +2°C° 0 mm 1 mps 671 mmHg 92%
02:00 +2°C° 0 mm 1 mps 671 mmHg 92%
03:00 +2°C° 0 mm 1 mps 671 mmHg 91%
04:00 +2°C° 0 mm 1 mps 671 mmHg 91%
05:00 +2°C° 0 mm 1 mps 670 mmHg 91%
06:00 +2°C° 0 mm 1 mps 670 mmHg 91%
07:00 +2°C° 0 mm 1 mps 670 mmHg 91%
08:00 +4°C° 0 mm 1 mps 671 mmHg 85%
09:00 +5°C° 0 mm 1 mps 671 mmHg 80%
10:00 +6°C° 0 mm 2 mps 672 mmHg 74%
11:00 +7°C° 0.1 mm 2 mps 672 mmHg 72%
12:00 +7°C° 0.1 mm 2 mps 672 mmHg 71%
13:00 +8°C° 0.1 mm 2 mps 672 mmHg 69%
14:00 +8°C° 0.4 mm 3 mps 672 mmHg 71%
15:00 +7°C° 0.4 mm 3 mps 672 mmHg 74%
16:00 +7°C° 0.4 mm 3 mps 671 mmHg 76%
17:00 +6°C° 0.1 mm 2 mps 671 mmHg 81%
18:00 +4°C° 0.1 mm 2 mps 671 mmHg 87%
19:00 +4°C° 0.1 mm 1 mps 670 mmHg 93%
20:00 +3°C° 0 mm 1 mps 671 mmHg 93%
21:00 +3°C° 0 mm 1 mps 671 mmHg 93%
22:00 +3°C° 0 mm 1 mps 671 mmHg 94%
23:00 +2°C° 0 mm 1 mps 671 mmHg 93%
Show more

We Need Your Consent

Meteoprog and our Service Providers may store and access personal data such as cookies, device identifiers or other similar technologies on your device and process such data to personalise content and ads, as well as provide social media features and to analyse the traffic.

  • Store and/or access information on your device

    Cookies, device identifiers or other information can be stored or accessed on your device for the purposes indicated above.

  • Personalised ads and content, ad and content measurement, audience insights, and products development

    Ads and content can be personalised based on a profile. More data can be added to better personalise ads and content. Ad and content performance can be measured. Insights about the audience who saw the ads and content can be derived. Such data can be used to develop or improve user’s experience, systems and software.

By clicking ‘I Agree’ you will allow the use of indicated cookies, device identifiers, web beacons or other similar technologies. Your settings can be changed in the browser on your device.

For certain purposes, legitimate interests may be relied on, rather than consent. You can read more about this in our Privacy and Cookie Policy.